Location: Ch�risy
(50.2331°N, 2.9131°E)
Time: 22:28:09
(UTC+00:00)

USA 267 - Pass Details

Date: 17 January 2021
Orbit: 1102 x 1106 km, 123.0° (Epoch: 22 February)

Event Time Altitude Azimuth Distance (km) Brightness Sun altitude
Exits shadow 18:29:54 32° 105° (ESE) 1,810 3.9 -20.6°
Maximum altitude 18:31:24 35° 132° (SE) 1,697 3.9 -20.8°
Drops below altitude 10° 18:37:17 10° 196° (SSW) 2,955 5.8 -21.8°
Sets 18:40:01 0° 205° (SSW) 3,910 6.6 -22.2°
